[ ตารางข้อมูล ] [ Min-Max ] [ วันนี้2 ] [ วันนี้4 ] [ เทียบ-A 3วัน ] [ เทียบ-B 4วัน ]   

วันนี้2   [ ◀ ช่วงเก่ากว่า ] [ ช่วงที่ 21 ] [ ช่วงใหม่กว่า ▶ ] [ ล่าสุด ]    [ 3 ชั่วโมง ] [ 6 ชั่วโมง ] [ 12 ชั่วโมง ] [ 24 ชั่วโมง ]   วันนี้2

อุณภูมิในตู้ Knockdown4529  ราย 6 ชั่วโมง  ที่วัดได้ ในช่วงวันเวลา 26/08/2026 (16:00) ถึง 26/08/2026 (22:00) 
ความชื้นในตู้ Knockdown4529  ราย 6 ชั่วโมง  ที่วัดได้ ในช่วงวันเวลา 26/08/2026 (16:00) ถึง 26/08/2026 (22:00) 
การใช้ไฟฟ้าในตู้ Knockdown4529  ราย 6 ชั่วโมง  ที่วัดได้ ในช่วงวันเวลา 26/08/2026 (16:00) ถึง 26/08/2026 (22:00) 

  DS18B20SHTC3PZEM-004TWiFi 
IDDate d/m/Y & Timedata1
สูง
data2
ต่ำ
data3
นอก
temp
pcb
hum
pcb
VoltAmpWattrssiTime
 16278  26/08/2026 21:56:00  31.1  31.2  28.2  32.1  66.2  232.3  0.04  4.5  -81  21:56 
 16277  26/08/2026 21:51:16  31.2  31.2  28.2  32.1  66.1  230.5  0.04  4.5  -79  21:51 
 16276  26/08/2026 21:46:33  31.2  31.3  28.2  32.1  66.2  232.2  0.04  4.6  -82  21:46 
 16275  26/08/2026 21:41:50  31.2  31.3  28.3  32.5  66.2  230.5  0.04  4.5  -82  21:41 
 16274  26/08/2026 21:37:05  31.2  31.4  28.4  32.3  66.1  233.2  0.04  4.5  -82  21:37 
 16273  26/08/2026 21:32:22  31.3  31.4  28.4  32.3  66.0  231.5  0.04  4.5  -79  21:32 
 16272  26/08/2026 21:27:39  31.4  31.4  28.8  32.4  66.0  233.3  0.04  4.5  -81  21:27 
 16271  26/08/2026 21:22:56  31.4  31.5  29.0  32.5  66.0  231.7  0.04  4.5  -82  21:22 
 16270  26/08/2026 21:18:12  31.4  31.5  29.0  32.5  65.9  233.6  0.04  4.6  -82  21:18 
 16269  26/08/2026 21:13:28  31.4  31.6  28.8  32.5  66.0  231.6  0.04  4.5  -81  21:13 
 16268  26/08/2026 21:08:45  31.5  31.6  28.7  32.5  65.9  233.0  0.04  4.5  -82  21:08 
 16267  26/08/2026 21:04:00  31.5  31.6  29.0  32.6  65.8  231.0  0.04  4.5  -82  21:04 
 16266  26/08/2026 20:59:17  31.6  31.6  29.2  32.6  66.0  232.3  0.04  4.5  -82  20:59 
 16265  26/08/2026 20:54:33  31.6  31.7  29.2  32.6  65.8  230.9  0.04  4.5  -82  20:54 
 16264  26/08/2026 20:49:49  31.6  31.8  29.2  32.7  65.8  232.5  0.04  4.6  -78  20:49 
 16263  26/08/2026 20:45:06  31.7  31.8  29.3  32.7  65.8  230.7  0.04  4.6  -82  20:45 
 16262  26/08/2026 20:40:22  31.7  31.8  29.4  32.6  65.7  231.9  0.04  4.5  -84  20:40 
 16261  26/08/2026 20:35:39  31.8  31.8  29.4  32.7  65.8  231.7  0.04  4.5  -82  20:35 
 16260  26/08/2026 20:30:54  31.8  31.8  29.4  32.8  65.8  231.1  0.04  4.5  -81  20:30 
 16259  26/08/2026 20:26:11  31.8  31.9  29.4  32.9  65.7  229.5  0.04  4.5  -82  20:26 
 16258  26/08/2026 20:21:25  31.9  31.9  29.4  33.0  65.8  229.8  0.04  4.5  -78  20:21 
 16257  26/08/2026 20:16:41  31.9  32.0  29.5  33.0  65.6  229.6  0.04  4.5  -81  20:16 
 16256  26/08/2026 20:11:58  31.9  32.0  29.6  32.8  65.6  229.5  0.04  4.5  -82  20:11 
 16255  26/08/2026 20:07:14  31.9  32.1  29.7  32.8  65.7  229.4  0.04  4.5  -80  20:07 

Data every 5 minute.


ใช้เวลาประมวลผล 0.04623 วินาที